STARLINK-1400, 45700

Orbit data source: Space-Track

STARLINK-1400, 45700 is a payload satellite owned by SpaceX/Seattle (US) in LEO that was launched on Thu, 04 Jun 2020 UTC via an FALCON 9 launch vehicle from the Air Force Eastern Test Range (AFETR). Payload-class satellites include a variety of spacecraft equipped with specific instruments for various scientific and technological missions. These include communications satellites like Starlink; space stations such as the ISS; scientific satellites like the Hubble; Earth observation satellites from companies like Planet Labs, Umbra, and HawkEye 360; GPS; miniature CubeSats for education and research; and military/defense satellites.

Loading next visibility...
Identifier
45700, 2020-035AV
Orbit
LEO
Country
Flag of USUS
Related business
Manufacturer
SpaceX/Seattle
Mission
Partially operational Commercial Communications
Bus & Motor
STARLINK, Unknown motor
Mass
260 kg wet, ~248 kg dry
Launch date (UTC)
2020-06-04 (6 years ago)
Launch vehicle
FALCON 9
Launch site
Air Force Eastern Test Range (AFETR)
Object type
Payload
Rocket body
Debris
Shape & HBR
Box + 1 Pan, 10.1 m
Radar Cross Section
13.562 m², Large (>1 m²)

Expand to show TLE details & history
Last TLE update: 6 hours ago

TLE from 6 hours ago
0 STARLINK-1400
1 45700U 20035AV  26238.14384691  .00090694  00000-0  44790-3 0  9998
2 45700  53.0388 270.1308 0006122  12.9522 347.1655 15.81341565345897
Epoch: 2026-08-26T03:27Z
TLE epoch observation values (Epoch: 2026-08-26T03:27:08.373Z)
Latitude
-0.00003°
Longitude
-116.05518°
Altitude
323.55 km
Speed
7.718 km/s
True Right ascension
18h 00m 31s
True Declination
0° 00' 00"
Sunlit
Object was in full shadow at epoch
Visualization orbit readout
Latitude
Unknown
Longitude
Unknown
Altitude
Unknown
Speed
Unknown
Apparent Right ascension
Unknown
Apparent Declination
Unknown
Sunlit
N/A
Visualization observer readout
Local Sidereal Time
01:13:25
Azimuth
Unknown
Elevation
Unknown
Doppler factor
Unknown
Orbital elements
Apogee altitude
331.033 km
Perigee altitude
322.823 km
Semi-major axis
6,705.065 km
Eccentricity
0.00061
Inclination
53.0388°
RAAN
270.1308°
Arg. of periapsis
12.9522°
True anomaly
347.1499°
Mean anomaly
347.1655°
Eccentric anomaly
347.1577°
Mean motion
3.95311 °/min
Orbital period
91.07 mins
BSTAR
0.0004479
Loading maneuver chart data...
Computing Atmospheric mass density...

Documentation

Showing up to 5 results
|